Date String (YYYY-MM-DD hh:mm:ss) UTC,Instrument flags,Ambient pressure (hPa),Sample flow (lpm),Bypass flow (lpm),Sample temperature (°C),Ambient temperature (°C),ASC tube jacket temperature (°C),LED temperature (°C),Box temperature (°C),Sample RH (%),Span deviation,Mass concentration (μg/m³),Mass concentration (μg/m³),Mass concentration (μg/m³)
DateTimeUTC,F1_M11,P_M11,Q1_M11,Q2_M11,T1_M11,T2_M11,T3_M11,T4_M11,T5_M11,U1_M11,ZSPAN_M11,X0_M11,X2_M11,X1_M11
2023-01-02 18:00:00,,0816.4,4.99,0.00,22.8,21.2,00.0,31.7,24.5,16.3,-001.1,0009.01,0006.96,0006.87
2023-01-02 18:01:00,,0816.4,5.00,0.00,22.8,21.2,00.0,31.6,24.5,16.2,-001.5,0008.96,0006.90,0006.82
2023-01-02 18:02:00,,0816.4,5.00,0.00,22.7,21.2,00.0,31.6,24.5,16.2,-001.4,0008.89,0006.84,0006.76
2023-01-02 18:03:00,,0816.3,5.00,0.00,22.7,21.1,00.0,31.6,24.4,16.2,-000.7,0008.81,0006.78,0006.71
2023-01-02 18:04:00,,0816.3,4.99,0.00,22.7,21.1,00.0,31.6,24.4,16.2,-000.3,0008.77,0006.74,0006.68
2023-01-02 18:05:00,,0816.3,5.01,0.00,22.7,21.4,00.0,31.6,24.5,16.2,-000.1,0008.74,0006.70,0006.63
2023-01-02 18:06:00,,0816.3,5.01,0.00,22.8,22.4,00.0,31.5,24.7,16.2,0000.2,0008.73,0006.66,0006.59
2023-01-02 18:07:00,,0816.3,5.00,0.00,22.9,23.3,00.0,31.6,24.9,16.0,0000.8,0008.71,0006.62,0006.55
2023-01-02 18:08:00,,0816.3,4.99,0.00,23.0,23.0,00.0,31.6,24.9,16.0,0000.1,0008.64,0006.57,0006.51
2023-01-02 18:09:00,,0816.3,4.99,0.00,23.0,22.6,00.0,31.7,24.9,16.0,0000.0,0008.59,0006.54,0006.49
2023-01-02 18:10:00,,0816.3,5.01,0.00,22.9,22.2,00.0,31.7,24.8,15.9,0000.0,0008.58,0006.55,0006.51
2023-01-02 18:11:00,,0816.3,5.00,0.00,22.9,21.9,00.0,31.7,24.7,16.0,0000.0,0008.63,0006.59,0006.54
2023-01-02 18:12:00,,0816.3,5.00,0.00,22.9,21.7,00.0,31.7,24.6,16.0,0000.0,0008.65,0006.62,0006.56
2023-01-02 18:13:00,,0816.3,5.00,0.00,22.9,21.5,00.0,31.7,24.6,16.0,0000.0,0008.67,0006.64,0006.58
2023-01-02 18:14:00,,0816.3,5.00,0.00,22.8,21.3,00.0,31.7,24.5,16.0,0000.0,0008.70,0006.68,0006.62
2023-01-02 18:15:00,,0816.3,5.01,0.00,22.8,21.2,00.0,31.7,24.5,16.0,0000.0,0008.75,0006.72,0006.66
2023-01-02 18:16:00,,0816.2,5.01,0.00,22.8,21.2,00.0,31.7,24.4,16.0,0000.0,0008.78,0006.74,0006.68
2023-01-02 18:17:00,,0816.3,5.00,0.00,22.7,21.1,00.0,31.7,24.4,16.1,0000.0,0008.80,0006.78,0006.72
2023-01-02 18:18:00,,0816.3,4.98,0.00,22.7,21.1,00.0,31.6,24.4,16.2,0000.0,0008.80,0006.83,0006.77
2023-01-02 18:19:00,,0816.3,4.99,0.00,22.7,21.1,00.0,31.6,24.3,16.2,0000.0,0008.89,0006.91,0006.84
2023-01-02 18:20:00,,0816.3,5.00,0.00,22.6,21.0,00.0,31.6,24.3,16.3,0000.0,0008.92,0006.94,0006.88
2023-01-02 18:21:00,,0816.3,5.00,0.00,22.6,20.9,00.0,31.6,24.2,16.3,0000.0,0008.93,0006.96,0006.89
2023-01-02 18:22:00,,0816.3,5.03,0.00,22.6,21.3,00.0,31.5,24.3,16.3,0000.0,0008.90,0006.94,0006.89
2023-01-02 18:23:00,,0816.3,5.00,0.00,22.7,22.3,00.0,31.5,24.6,16.3,0000.0,0008.88,0006.94,0006.89
2023-01-02 18:24:00,,0816.3,4.99,0.00,22.8,22.9,00.0,31.5,24.8,16.2,0000.0,0008.89,0006.94,0006.89
2023-01-02 18:25:00,,0816.3,4.98,0.00,22.8,22.4,00.0,31.6,24.7,16.2,0000.0,0008.93,0006.98,0006.92
2023-01-02 18:26:00,,0816.2,5.00,0.00,22.8,22.1,00.0,31.6,24.6,16.2,0000.0,0008.95,0007.00,0006.95
2023-01-02 18:27:00,,0816.2,5.00,0.00,22.8,21.8,00.0,31.6,24.5,16.2,0000.0,0008.99,0007.05,0007.00
2023-01-02 18:28:00,,0816.1,4.99,0.00,22.8,21.6,00.0,31.6,24.5,16.1,0000.0,0009.06,0007.08,0007.03
2023-01-02 18:29:00,,0816.1,5.00,0.00,22.7,21.4,00.0,31.6,24.4,16.2,0000.0,0009.08,0007.09,0007.03
2023-01-02 18:30:00,,0816.1,4.99,0.00,22.7,21.3,00.0,31.6,24.4,16.2,0000.0,0009.07,0007.09,0007.03
2023-01-02 18:31:00,,0816.0,5.00,0.00,22.7,21.2,00.0,31.6,24.3,16.2,0000.0,0009.08,0007.09,0007.04
2023-01-02 18:32:00,,0816.0,4.99,0.00,22.7,21.1,00.0,31.6,24.3,16.2,0000.0,0009.06,0007.07,0007.02
2023-01-02 18:33:00,,0816.0,5.00,0.00,22.6,21.0,00.0,31.5,24.3,16.2,0000.0,0009.07,0007.06,0007.01
2023-01-02 18:34:00,,0816.0,5.00,0.00,22.6,21.0,00.0,31.5,24.2,16.3,0000.0,0009.09,0007.06,0007.01
2023-01-02 18:35:00,,0815.9,5.00,0.00,22.6,20.9,00.0,31.5,24.2,16.3,0000.0,0009.07,0007.04,0006.99
2023-01-02 18:36:00,,0815.9,5.00,0.00,22.5,21.0,00.0,31.5,24.2,16.3,0000.0,0009.02,0006.98,0006.92
2023-01-02 18:37:00,,0815.9,5.00,0.00,22.6,21.9,00.0,31.5,24.4,16.2,0000.0,0008.97,0006.92,0006.87
2023-01-02 18:38:00,,0816.0,5.00,0.00,22.7,22.9,00.0,31.4,24.7,16.1,0000.0,0008.91,0006.85,0006.80
2023-01-02 18:39:00,,0816.0,5.00,0.00,22.8,23.3,00.0,31.5,24.9,16.0,0000.0,0008.85,0006.80,0006.76
2023-01-02 18:40:00,,0816.1,4.99,0.00,22.9,22.8,00.0,31.6,24.8,16.0,0000.0,0008.83,0006.77,0006.73
2023-01-02 18:41:00,,0816.0,4.99,0.00,22.8,22.3,00.0,31.6,24.7,16.0,0000.0,0008.81,0006.73,0006.69
2023-01-02 18:42:00,,0816.0,5.00,0.00,22.8,22.0,00.0,31.6,24.6,16.0,0000.0,0008.79,0006.70,0006.66
2023-01-02 18:43:00,,0815.9,5.01,0.00,22.8,21.7,00.0,31.6,24.5,16.0,0000.0,0008.80,0006.70,0006.65
2023-01-02 18:44:00,,0815.9,5.00,0.00,22.8,21.5,00.0,31.6,24.5,16.0,0000.0,0008.84,0006.71,0006.65
2023-01-02 18:45:00,,0815.9,5.00,0.00,22.7,21.3,00.0,31.6,24.4,16.0,0000.0,0008.91,0006.74,0006.65
2023-01-02 18:46:00,,0815.9,5.01,0.00,22.7,21.2,00.0,31.6,24.3,16.0,0000.0,0008.97,0006.77,0006.67
2023-01-02 18:47:00,,0815.9,5.00,0.00,22.7,21.1,00.0,31.6,24.3,15.9,0000.0,0009.00,0006.79,0006.69
2023-01-02 18:48:00,,0815.9,4.99,0.00,22.6,20.9,00.0,31.6,24.2,15.9,0000.0,0009.02,0006.82,0006.72
2023-01-02 18:49:00,,0816.0,4.99,0.00,22.6,20.9,00.0,31.5,24.2,15.9,0000.0,0009.08,0006.87,0006.76
2023-01-02 18:50:00,,0815.9,5.01,0.00,22.6,20.8,00.0,31.5,24.1,15.9,0000.0,0009.12,0006.90,0006.78
2023-01-02 18:51:00,,0815.9,5.01,0.00,22.5,21.0,00.0,31.5,24.2,15.9,0000.0,0009.12,0006.90,0006.78
2023-01-02 18:52:00,,0815.9,5.00,0.00,22.6,22.0,00.0,31.5,24.4,15.9,0000.1,0009.14,0006.92,0006.80
2023-01-02 18:53:00,,0815.9,5.00,0.00,22.7,22.8,00.0,31.5,24.7,15.8,-000.5,0009.15,0006.93,0006.82
2023-01-02 18:54:00,,0815.9,4.99,0.00,22.8,22.6,00.0,31.5,24.7,15.8,-000.1,0009.17,0006.97,0006.86
2023-01-02 18:55:00,,0815.8,4.99,0.00,22.8,22.2,00.0,31.6,24.6,15.8,-000.7,0009.19,0007.01,0006.89
2023-01-02 18:56:00,,0815.8,5.00,0.00,22.8,21.9,00.0,31.6,24.5,15.8,-000.4,0009.12,0006.98,0006.89
2023-01-02 18:57:00,,0815.8,5.00,0.00,22.7,21.6,00.0,31.6,24.4,15.8,-000.3,0009.09,0006.97,0006.89
2023-01-02 18:58:00,,0815.8,5.00,0.00,22.7,21.4,00.0,31.6,24.4,15.8,0000.1,0009.08,0006.98,0006.91
2023-01-02 18:59:00,,0815.7,5.01,0.00,22.7,21.3,00.0,31.6,24.4,15.8,-000.4,0009.08,0006.98,0006.91
